Home > Weather > Kuala Lumpur > Past weeks

Flag for Malaysia Past Weather in Kuala Lumpur, Malaysia — Yesterday and Last 2 Weeks

Now
95 °F

Broken clouds.


Feels Like: 110 °F
Forecast: 75 / 91 °F
Wind: 5 mph from Southeast

Location: Sultan Abdul Aziz Shah-Subang

Current Time: Jun 30, 2016 at 2:56:17 PM

Latest Report: Jun 30, 2016 at 2:00 PM


Visibility: N/A

Pressure: 29.80 "Hg

Humidity: 56%

Dew Point: 77 °F

Location of Kuala LumpurLocation

Past Weather in Kuala Lumpur — Graph

°F

Kuala Lumpur Temperature Yesterday

Maximum temperature yesterday: 95 °F (at 4:00 PM)
Minimum temperature yesterday: 79 °F (at 5:00 AM)
Average temperature yesterday: 86 °F

High & Low Weather Summary for the Past Weeks

 TemperatureHumidityPressure
High95 °F (Jun 29, 4:00 PM)100% (Jun 17, 7:00 AM)29.89 "Hg (Jun 17, 7:00 AM)
Low73 °F (Jun 17, 8:00 PM)49% (Jun 26, 3:00 PM)29.68 "Hg (Jun 16, 4:00 PM)
Average84 °F76%29.80 "Hg
* Reported Jun 15 1:00 PM — Jun 30 1:00 PM, Kuala Lumpur, Weather by CustomWeather, © 2016

Note: Actual official high and low records may vary slightly from our data, if they occured in-between our weather recording intervals... More about our weather records

Advertising

Kuala Lumpur Weather History for the Previous 24 Hours

Scroll right to see more
 ConditionsComfort  
Time TempWeatherWind HumidityBarometerVisibility
1:00 PM
Thu, Jun 30
93 °FBroken clouds.3 mph56%29.83 "HgN/A
12:00 PM91 °FPartly sunny.7 mph63%29.86 "HgN/A
11:00 AM91 °FPartly sunny.5 mph63%29.86 "HgN/A
10:00 AM90 °FPartly sunny.6 mph63%29.86 "HgN/A
9:00 AM84 °FPartly sunny.1 mph74%29.86 "Hg5 mi
8:00 AM81 °FPartly cloudy.1 mph79%29.86 "HgN/A
7:00 AM81 °FPartly cloudy.2 mph79%29.83 "Hg5 mi
6:00 AM81 °FPartly cloudy.No wind84%29.80 "Hg5 mi
5:00 AM79 °FPassing clouds.No wind89%29.80 "Hg4 mi
4:00 AM81 °FPartly cloudy.2 mph79%29.83 "Hg4 mi
3:00 AM81 °FPartly cloudy.No wind84%29.80 "Hg4 mi
2:00 AM81 °FPartly cloudy.1 mph79%29.83 "Hg4 mi
1:00 AM82 °FPassing clouds.No wind74%29.83 "Hg4 mi
12:00 AM82 °FPartly cloudy.No wind79%29.83 "Hg5 mi
11:00 PM
Wed, Jun 29
82 °FPassing clouds.No wind74%29.86 "Hg6 mi
10:00 PM84 °FPassing clouds.No wind74%29.83 "Hg6 mi
9:00 PM86 °FPassing clouds.1 mph70%29.83 "HgN/A
8:00 PM88 °FPartly sunny.5 mph62%29.80 "HgN/A
7:00 PM91 °FPartly sunny.7 mph52%29.77 "HgN/A
6:00 PM93 °FPartly sunny.5 mph53%29.77 "HgN/A
5:00 PM93 °FPartly sunny.5 mph53%29.77 "HgN/A
4:00 PM95 °FPartly sunny.6 mph50%29.77 "HgN/A
3:00 PM93 °FPartly sunny.6 mph53%29.80 "HgN/A
2:00 PM93 °FPartly sunny.8 mph53%29.80 "HgN/A
Weather by CustomWeather, © 2016

See weather overviewHow to use our weather pages